User: anonymous   Login
Location: NJAA Observatory
(40.6819°N, 74.8979°W)
Time: 16:09:50
(UTC-05:00)
Language:

Cosmos 1939 Rocket - Orbit

View from above orbital plane
View from above orbital plane
View from above satellite
View from above satellite

Ground track
Ground track

The orbit data is extracted from the following two-line orbital elements,

1 19046U 88032B   14325.79959388  .00002741  00000-0  22173-3 0   526
2 19046 097.6256 017.4579 0037492 284.2025 075.5035 15.00065631431828
Epoch (UTC): 21 November 2014 19:11:24
Eccentricity: 0.0037492
inclination: 97.6256°
perigee height: 540 km
apogee height: 593 km
right ascension of ascending node: 17.4579°
argument of perigee: 284.2025°
revolutions per day: 15.00065631
mean anomaly at epoch: 75.5035°
orbit number at epoch: 43182

The dashed part of the orbit path shows where the satellite is in the earth's shadow,  

DLR